Theta_e
303 306 303 302 303 300 294 294 295 290 291 292 297 299 303 302 302 301 303 302 300 299 298 295 293 292 291 291 290 290 288 288 289 288 287 284 285 286 286 285 286 286 286 286
308 305 305 305 303 301 300 297 294 294 294 294 299 302 303 303 303 302 302 302 300 298 297 294 293 292 291 291 290 289 288 288 288 288 286 284 285 285 286 286 285 286 286 285
307 303 304 302 301 302 300 299 298 298 297 299 299 300 303 304 303 302 302 302 300 299 296 293 293 292 292 291 290 289 288 288 288 287 285 284 284 285 285 285 286 285 285 285
304 302 296 302 301 303 302 301 298 299 299 300 302 303 304 304 303 302 303 301 299 298 295 293 293 292 292 291 290 289 288 287 287 285 284 283 284 284 285 284 285 285 285 285
302 304 302 303 302 302 302 302 301 301 301 302 303 303 304 304 303 303 303 301 299 297 294 293 293 292 292 291 290 289 287 287 286 284 284 283 284 284 284 284 284 284 285 285
302 303 302 301 303 304 303 302 302 302 302 301 303 301 300 304 304 303 301 300 298 296 294 293 293 292 292 291 290 289 287 286 285 284 284 283 283 283 283 283 283 283 283 285
292 295 301 300 303 304 304 302 301 303 303 302 301 304 305 304 303 302 302 299 297 295 294 293 293 292 292 291 290 289 287 285 284 284 284 283 282 282 282 282 282 282 282 283
299 298 301 302 302 302 303 303 304 304 304 304 304 305 305 303 302 302 301 299 297 295 294 293 293 292 292 291 290 288 286 285 285 284 283 283 282 282 282 282 281 281 281 282
302 301 301 303 303 304 304 306 305 305 304 305 304 305 304 303 302 302 300 299 297 295 294 293 293 292 292 291 289 288 286 285 285 284 284 283 283 282 282 281 281 280 280 280
302 302 302 304 304 304 304 306 306 305 304 305 305 305 304 303 302 301 300 299 297 295 294 293 293 292 292 291 289 288 286 285 285 284 284 283 282 282 281 280 280 280 280 280
300 302 304 305 305 305 305 305 305 304 304 304 305 304 303 303 302 301 300 299 297 296 294 293 293 293 292 290 289 288 286 286 285 284 283 283 282 282 281 280 280 280 279 279
303 305 305 305 307 305 306 305 305 304 304 304 304 304 303 303 302 302 301 299 298 296 294 293 293 293 292 290 290 288 286 285 284 284 283 282 282 281 280 280 279 279 279 279
306 306 306 306 307 306 306 305 306 305 305 304 304 304 304 303 302 302 300 299 299 297 295 294 294 293 291 290 290 288 286 285 284 284 283 282 282 281 280 280 279 279 280 279
306 306 306 306 307 307 307 306 306 306 305 305 305 304 304 303 303 302 301 300 299 297 295 294 294 292 291 290 290 289 287 285 284 284 284 282 282 281 280 280 280 281 280 280
308 306 306 307 307 307 307 307 306 305 305 304 304 304 304 303 303 303 301 300 299 296 295 294 294 292 291 290 290 289 287 285 284 284 284 283 282 281 280 280 280 280 280 280
308 307 305 306 307 307 307 307 307 306 305 305 305 304 304 304 303 303 301 300 299 298 296 294 294 292 291 291 290 289 288 285 284 284 284 283 282 281 280 280 280 280 280 280
306 305 306 305 306 307 307 307 307 307 308 307 305 305 304 304 303 302 301 300 299 297 295 294 293 292 291 291 291 290 288 285 284 284 284 283 282 281 281 281 280 280 280 280
307 307 307 308 307 306 307 307 307 307 306 306 306 305 304 304 303 303 302 300 298 297 295 294 293 292 292 292 291 290 289 286 285 284 283 283 282 281 280 281 280 280 279 279
308 308 307 306 307 307 307 308 308 307 306 305 305 305 305 304 303 303 301 300 299 298 296 295 294 293 293 293 291 290 289 288 286 284 283 283 283 282 281 280 280 280 279 279
308 308 307 306 305 306 307 308 308 307 306 305 304 304 304 304 303 303 301 301 301 299 296 294 294 294 293 293 291 290 289 289 288 286 283 283 283 282 281 280 280 280 280 279
308 307 306 305 305 304 304 307 307 306 305 304 303 303 304 303 303 302 301 301 300 297 295 295 295 295 294 294 293 291 289 289 288 288 285 283 283 282 281 280 280 280 280 279
306 306 306 304 304 304 304 306 307 306 305 304 303 303 303 303 303 301 301 301 300 297 296 295 295 295 295 294 293 292 292 290 289 288 287 283 283 283 282 281 280 280 280 279
306 306 305 305 304 304 304 304 305 306 305 304 303 303 303 303 303 302 301 301 299 297 295 295 295 295 295 295 294 293 292 292 290 289 288 286 283 283 282 281 280 280 280 280
305 306 305 305 304 304 304 304 304 304 303 303 303 303 303 303 302 302 302 301 299 298 296 295 296 295 295 295 294 294 293 292 291 289 288 287 284 283 283 282 281 280 280 280
305 305 305 304 304 304 304 303 303 303 303 303 303 303 303 302 302 302 301 300 298 297 295 295 296 296 295 295 294 294 293 293 292 290 288 288 285 283 283 283 282 280 280 279
305 305 304 304 304 304 303 303 303 303 303 303 303 302 302 302 301 301 300 299 298 296 295 296 296 296 296 295 294 293 293 293 292 291 289 288 287 283 283 283 282 281 280 279
304 305 305 305 304 303 303 303 303 303 303 303 302 302 302 301 301 300 299 298 296 295 296 296 296 296 296 294 293 293 293 292 292 291 290 289 287 286 283 282 282 281 281 280
Wind_Speed
2 2 4 5 8 11 8 6 7 5 9 8 9 16 22 19 16 14 14 13 13 10 8 7 7 11 12 13 17 19 20 18 21 25 28 25 25 25 26 27 25 24 24 25
1 4 3 3 7 12 10 4 7 3 10 21 16 8 14 16 14 14 14 13 13 10 7 4 6 9 11 13 17 19 19 18 21 25 27 25 23 24 24 26 25 25 26 25
2 1 1 7 11 14 7 6 8 9 10 4 4 15 17 15 16 16 15 13 14 9 5 2 6 8 10 13 16 19 17 18 21 25 26 23 21 22 23 25 25 25 26 25
2 3 2 7 2 10 14 7 14 6 7 12 7 9 9 12 16 16 14 14 12 7 4 1 4 7 10 13 16 18 16 18 21 25 24 21 20 20 22 23 25 25 26 26
4 3 7 5 5 8 8 9 22 22 14 16 7 5 10 15 15 15 12 11 8 5 3 0 3 6 10 12 15 17 17 19 22 23 21 20 19 20 20 20 22 23 25 25
2 2 6 6 2 9 9 6 11 31 20 18 16 3 8 18 16 13 14 12 7 5 3 1 2 6 9 11 14 17 17 19 20 20 20 20 19 19 19 18 22 21 22 24
2 2 8 8 4 15 4 6 5 25 22 26 11 17 1 17 17 15 13 11 9 5 3 1 1 5 8 10 14 16 17 17 17 19 19 20 18 19 19 19 20 20 20 22
3 1 9 11 9 8 5 3 6 11 16 24 24 16 10 20 20 18 15 13 10 7 4 2 1 4 7 10 13 14 15 15 15 18 19 20 20 20 21 20 21 23 23 23
9 7 6 18 6 17 0 6 7 8 12 16 21 16 19 23 21 18 14 10 9 6 5 4 2 3 6 9 11 13 12 12 13 15 18 20 21 22 24 24 24 24 25 26
2 7 20 16 29 8 12 5 6 6 9 15 17 18 22 23 21 19 16 12 10 8 7 4 2 3 5 7 9 11 10 10 11 13 15 18 19 22 24 24 24 24 25 24
5 12 13 18 29 28 18 12 10 10 9 12 15 20 22 23 21 19 16 14 11 7 6 5 3 3 4 5 8 9 8 9 10 12 14 16 18 20 21 21 21 22 22 22
8 15 11 6 17 30 29 20 17 15 15 15 13 16 19 17 17 18 18 16 13 9 8 6 5 4 3 4 7 7 7 8 9 11 13 15 16 17 18 18 18 19 20 21
17 14 13 5 7 17 31 24 21 19 14 16 17 14 17 15 16 19 19 17 14 9 7 7 5 4 3 4 5 6 6 7 9 10 13 15 16 17 17 17 17 18 19 20
32 18 12 13 7 10 22 31 24 21 19 16 14 20 18 16 17 20 21 18 14 11 9 8 6 5 4 3 4 5 5 7 7 9 13 15 16 17 17 17 18 19 19 19
29 33 27 18 14 10 15 26 30 27 26 26 24 20 21 21 19 18 21 19 16 12 11 9 7 5 5 4 3 4 4 6 7 8 11 13 14 15 16 17 17 18 17 18
21 27 31 24 18 16 17 22 31 31 28 28 28 27 23 20 18 20 23 22 20 14 11 8 7 6 5 4 4 3 3 4 6 7 9 11 13 13 14 16 17 18 19 20
16 21 26 31 27 24 22 21 22 23 24 30 30 27 27 27 25 25 25 23 17 11 8 7 6 6 5 5 5 4 3 3 5 6 8 10 11 12 13 14 16 17 18 19
25 20 20 28 33 32 27 25 22 22 20 19 27 29 30 31 27 26 27 24 19 17 12 8 8 7 7 6 5 4 3 3 4 5 7 8 9 10 11 12 14 15 16 16
24 25 25 20 25 30 31 29 26 23 20 16 23 29 26 28 28 26 27 24 21 18 13 11 10 9 8 7 6 5 5 5 4 5 6 7 8 9 10 11 12 13 14 14
40 35 24 27 20 22 29 31 28 26 22 18 17 24 28 29 29 28 27 23 17 10 12 12 12 10 9 8 6 6 6 6 5 5 6 7 8 8 9 9 10 11 12 12
28 32 27 24 29 22 19 26 29 29 25 21 16 19 21 25 28 29 26 23 18 18 16 14 13 11 11 9 8 7 6 6 6 6 6 7 7 8 8 8 9 9 10 10
21 28 25 22 22 26 22 20 24 27 26 23 20 19 20 23 27 28 25 18 14 19 17 15 13 13 12 12 11 10 8 7 7 8 7 8 8 8 9 8 7 7 8 8
19 25 23 21 18 19 22 21 22 24 25 23 22 22 23 19 23 28 26 21 20 19 17 15 13 14 14 15 13 12 11 10 8 8 9 9 9 9 10 9 8 7 7 7
19 26 25 18 19 19 18 17 19 20 20 18 19 21 20 22 25 25 20 14 18 19 16 15 15 15 16 16 16 15 13 13 11 10 11 11 11 11 11 11 9 8 7 6
18 25 24 24 20 17 15 14 19 20 19 19 19 19 19 20 20 20 20 20 18 18 17 16 16 17 17 17 18 17 16 15 14 13 13 13 14 14 14 13 11 10 9 8
20 29 27 22 19 16 14 13 16 19 20 20 19 20 21 22 21 20 18 20 19 17 16 16 17 18 17 17 18 18 18 17 18 17 15 16 16 16 16 15 14 12 11 10
18 22 27 24 21 18 15 16 17 19 21 19 18 20 22 23 23 21 21 20 19 18 17 17 17 17 17 17 17 18 19 19 20 20 19 18 19 18 18 18 16 15 13 12
Wind_Direction
183 154 143 166 175 179 192 177 167 245 207 251 228 215 227 234 243 249 246 252 236 235 271 308 348 355 354 354 357 359 359 2 3 2 3 6 7 8 10 16 17 14 15 16
131 162 194 223 193 195 212 218 279 230 275 225 245 216 235 237 234 236 229 243 218 230 265 302 350 354 355 355 357 359 360 4 4 0 3 7 8 9 12 16 17 16 17 16
219 238 179 308 208 186 186 199 175 211 228 194 198 215 226 219 220 220 224 227 212 232 262 311 347 358 356 356 358 359 5 5 3 2 3 7 10 12 15 17 17 19 18 17
141 56 340 243 175 186 199 199 213 241 215 198 193 197 214 212 218 217 226 210 207 231 246 267 355 3 359 357 359 3 6 4 3 3 3 8 13 15 18 18 19 20 19 17
137 210 285 259 183 155 170 259 209 222 214 205 175 186 233 215 217 226 231 197 201 207 209 184 6 7 1 358 1 4 7 4 4 8 8 11 16 16 16 16 21 23 20 19
136 193 230 241 200 180 163 294 214 206 203 167 163 181 239 211 214 199 178 190 199 196 191 191 16 7 1 357 3 6 5 4 7 16 18 19 17 17 16 15 25 21 23 23
111 237 286 240 169 150 128 238 178 193 192 170 182 201 254 192 172 174 181 188 189 188 172 187 354 3 358 0 3 6 2 2 12 22 24 23 19 18 18 24 23 24 25 26
107 113 270 177 130 168 230 161 157 163 182 190 196 194 188 171 170 177 185 188 189 191 189 206 280 353 356 358 3 3 360 4 15 22 26 28 26 24 22 28 25 25 25 29
185 210 238 194 198 206 277 182 166 165 184 190 190 188 187 178 179 184 187 185 191 192 205 211 250 328 349 355 1 1 3 10 18 21 22 23 25 26 22 25 27 23 22 22
106 242 235 240 220 223 225 206 182 170 178 184 191 193 186 183 184 189 188 192 197 203 212 213 239 291 336 347 0 3 5 15 23 23 23 22 24 23 22 23 23 24 21 20
262 275 271 256 229 230 223 207 192 175 170 172 181 183 181 185 191 194 197 197 203 213 220 216 242 273 318 343 1 3 3 14 21 23 25 22 21 22 24 25 19 18 22 20
216 218 209 242 234 215 208 203 195 185 175 180 181 182 183 190 197 199 202 203 204 213 221 226 238 258 302 341 356 359 5 14 20 22 21 23 27 23 22 25 23 22 20 25
219 223 219 238 221 212 206 198 199 197 198 188 189 195 193 194 200 205 208 211 212 222 219 227 235 248 292 325 345 359 5 11 18 21 19 19 21 26 30 30 26 29 27 23
232 233 224 213 216 220 212 209 208 207 208 207 199 201 205 202 207 212 215 217 213 220 218 226 235 248 273 294 328 350 359 2 13 20 20 16 17 20 27 31 33 31 30 28
239 234 237 242 217 215 207 207 207 208 211 211 210 208 207 211 216 221 218 212 213 219 220 227 238 245 258 272 308 332 344 354 8 13 18 14 15 18 21 26 27 29 31 31
243 234 228 227 221 216 205 207 212 216 220 218 215 214 217 220 221 224 216 210 214 225 228 231 237 238 248 262 287 301 323 340 359 7 13 11 11 16 19 22 22 23 26 30
220 215 217 221 219 214 210 206 207 211 221 224 222 220 219 219 221 222 217 216 218 218 231 232 232 237 241 252 270 276 295 314 345 356 6 4 6 9 15 18 18 21 24 27
237 244 239 230 217 216 217 214 213 216 219 225 223 220 220 219 220 220 216 210 209 216 224 221 230 233 237 247 257 255 268 284 323 339 350 354 356 0 6 11 16 18 22 25
231 228 229 230 231 225 219 217 218 219 218 218 223 221 224 227 224 223 213 208 216 222 224 225 223 222 226 237 247 246 253 262 288 319 329 336 340 350 355 360 8 14 18 23
234 228 227 221 217 218 219 219 221 219 217 215 223 226 221 220 220 218 211 216 228 227 217 223 223 221 221 227 234 239 246 256 268 299 309 314 324 335 340 346 356 6 11 17
218 213 214 214 214 216 220 215 216 216 216 215 221 216 215 219 218 213 207 213 220 210 220 220 223 222 224 227 231 233 243 257 260 279 292 296 306 316 320 327 339 352 1 9
204 201 204 204 208 212 210 205 210 217 217 215 214 210 211 213 216 209 214 221 219 215 222 224 226 228 231 233 236 236 243 259 265 266 279 283 285 294 300 306 316 331 344 354
193 190 191 197 204 204 206 207 207 212 216 218 219 216 213 215 216 207 210 215 212 218 224 226 228 232 234 238 241 243 244 252 267 267 268 274 273 276 282 287 292 304 319 331
189 191 193 196 190 184 190 194 199 203 210 215 219 217 214 213 211 212 219 223 219 221 226 224 228 235 240 243 245 247 249 250 259 269 264 267 264 262 267 272 274 279 290 302
178 180 183 179 177 179 185 193 197 196 198 201 203 204 208 210 213 213 214 216 216 220 225 226 231 238 245 247 247 247 250 249 253 261 265 262 259 254 256 260 262 264 270 279
177 185 183 185 189 190 192 195 199 198 196 196 199 203 205 205 205 210 210 213 219 224 225 229 235 242 249 250 249 247 249 250 251 258 266 263 259 254 254 256 258 260 262 268
174 183 191 193 193 195 197 198 201 205 203 207 210 206 204 208 210 215 215 213 219 224 229 236 241 246 251 253 250 247 249 251 253 258 264 266 262 257 253 254 255 256 257 261